#timestamp,LO_Frequency,Hit,StdDev 
1618628415.3,286046999.2,N
1618628435.1,286046999.1,N
1618628455.9,286047000.0,N
1618628475.7,286047004.1,N
1618628495.5,286047005.5,N
1618628515.4,286047005.2,N
1618628535.2,286047004.2,N
1618628555.0,286047004.1,N
1618628555.9,286047004.1,N
1618628575.8,286047003.2,N
1618628595.6,286047003.3,N
1618628615.5,286047002.1,N
1618628635.3,286047002.3,N
1618628655.1,286047000.0,N
1618628675.9,286046999.8,N
1618628695.7,286047002.8,N
1618628715.5,286047000.4,N
1618628735.4,286046998.5,N
1618628755.2,286046998.5,N
1618628775.1,286046998.8,N
1618628776.0,286046998.8,N
1618628795.8,286046998.4,N
1618628815.6,286047001.2,N
1618628835.5,286047000.8,N
1618628855.3,286046998.5,N
1618628875.2,286047002.6,N
1618628895.9,286047000.5,N
1618628915.7,286047001.6,N
1618628935.6,286046999.9,N
1618628955.4,286047000.8,N
1618628975.3,286046996.6,N
1618628995.1,286046996.6,N
1618628996.0,286046996.6,N
1618629015.8,286046998.5,N
1618629035.7,286047000.6,N
1618629055.5,286046998.8,N
1618629075.3,286046996.5,N
1618629095.2,286047001.0,N
1618629115.0,286047000.5,N
1618629115.9,286047000.5,N
1618629135.8,286046998.1,N
1618629155.6,286046998.1,N
1618629175.4,286046998.8,N
1618629195.3,286046999.2,N
1618629215.1,286046999.0,N
1618629235.9,286046996.7,N
1618629255.7,286046996.8,N
1618629275.5,286046998.7,N
1618629295.4,286047000.9,N
1618629315.2,286046998.5,N
1618629335.0,286046998.9,N
1618629335.9,286046998.9,N
1618629355.8,286047001.2,N
1618629375.6,286046998.7,N
1618629395.5,286046998.8,N
1618629415.3,286047001.0,N
1618629435.1,286047002.3,N
1618629455.9,286046998.2,N
1618629475.7,286046999.6,N
1618629495.6,286046999.5,N
1618629515.4,286047000.4,N
1618629535.2,286047001.3,N
1618629555.1,286047001.7,N
1618629556.0,286047001.7,N
1618629575.8,286047002.5,N
1618629595.6,286047002.7,N
1618629615.5,286047001.9,N
1618629635.3,286046999.7,N
1618629655.2,286047001.4,N
1618629675.9,286047003.4,N
1618629695.7,286047003.2,N
1618629715.6,286047001.4,N
1618629735.4,286047000.9,N
1618629755.3,286047002.3,N
1618629775.1,286047011.9,Y
1618629795.8,286046999.9,P
1618629815.7,286047000.1,N
1618629835.5,286047001.5,P
1618629855.4,286047002.8,Y
1618629875.2,286047002.8,P
1618629895.1,286047000.0,N
1618629896.0,286047000.0,N
1618629915.8,286046998.5,N
1618629935.6,286046998.5,N
1618629955.5,286046999.7,N
1618629975.3,286046998.8,N
1618629995.2,286046999.0,N
1618630015.0,286046995.4,Y
1618630015.9,286046995.4,P
1618630035.7,286046995.0,N
1618630055.6,286046995.4,N
1618630075.4,286046996.5,N
1618630095.3,286046999.3,N
1618630115.1,286046996.9,N
1618630135.8,286046996.4,N
1618630155.7,286046994.9,Y
1618630175.5,286047000.8,P
1618630195.4,286046996.8,N
1618630215.2,286046996.6,N
1618630235.0,286046999.3,N
1618630235.9,286046999.3,N
1618630255.8,286046996.9,N
1618630275.6,286046998.1,N
1618630295.4,286047001.1,N
1618630315.3,286046999.0,N
1618630335.1,286046999.2,N
1618630355.9,286046999.3,N
1618630375.7,286047000.7,N
1618630395.5,286046998.6,N
1618630415.4,286046998.6,N
1618630435.2,286046998.7,N
1618630455.0,286047000.8,N
1618630455.9,286047000.8,N
1618630475.8,286047000.9,N
1618630495.6,286046998.5,N
1618630515.5,286047002.0,N
1618630535.3,286047002.1,N
1618630555.1,286047002.5,N
1618630575.9,286047002.4,N
1618630595.7,286047000.4,N
1618630615.6,286046998.1,N
1618630635.4,286047001.0,N
1618630655.2,286046998.4,N
1618630675.1,286046998.1,N
1618630676.0,286046998.1,N
1618630695.8,286047000.8,N
1618630715.7,286047000.8,N
1618630735.5,286046998.4,N
1618630755.3,286046997.0,N
1618630775.2,286046997.5,N
1618630795.0,286046999.3,N
1618630795.9,286046999.3,N
1618630815.7,286046998.8,N
1618630835.6,286046999.1,N
1618630855.4,286046998.5,N
1618630875.3,286046998.7,N
1618630895.1,286046996.8,N
1618630896.0,286046996.8,N
1618630915.8,286046996.8,N
1618630935.7,286046996.6,N
1618630955.5,286046997.4,N
1618630975.3,286046997.5,N
1618630995.2,286046997.0,N
1618631015.0,286046998.4,N
1618631015.9,286046998.4,N
1618631035.8,286047001.1,N
1618631055.6,286046996.6,N
1618631075.4,286046995.5,N
1618631095.3,286046993.5,Y
1618631115.1,286046997.1,P
1618631135.9,286046996.9,P
1618631155.7,286046998.8,N
1618631175.5,286046999.4,N
1618631195.4,286046999.6,N
1618631215.2,286046998.9,N
1618631235.0,286046999.2,N
1618631235.9,286046999.2,N
1618631255.8,286046996.8,Y
1618631275.6,286046998.8,P
1618631295.5,286047000.9,P
1618631315.3,286046998.7,N
1618631335.1,286046998.9,N
1618631355.9,286046999.4,N
1618631375.7,286046998.8,N
1618631395.5,286046996.5,Y
1618631415.4,286046999.2,P
1618631435.2,286046999.1,P
1618631455.1,286046999.4,P
1618631456.0,286046999.4,Y
1618631475.8,286046998.4,P
1618631495.6,286046999.3,N
1618631515.5,286046998.9,N
1618631535.3,286046998.6,Y
1618631555.2,286047001.7,P
1618631575.9,286047000.3,N
1618631595.7,286047002.1,N
1618631615.6,286047002.7,N
1618631635.4,286047002.1,N
1618631655.3,286047000.2,N
1618631675.1,286047001.2,N
1618631676.0,286047001.2,N
1618631695.8,286047002.6,N
1618631715.7,286047002.2,N
1618631735.5,286047000.1,N
1618631755.3,286047000.0,N
1618631775.2,286047000.2,N
1618631795.0,286046999.8,N
1618631795.9,286046999.8,N
1618631815.8,286046999.9,N
1618631835.6,286047000.1,N
1618631855.4,286047001.0,N
1618631875.3,286047002.2,N
1618631895.1,286047002.6,N
1618631915.9,286047001.5,N
1618631935.7,286047001.4,N
1618631955.5,286047001.3,N
1618631975.4,286047003.8,Y
1618631995.2,286047004.3,P
